,,Stat5,,Stat1,,Stat2,,Stat3,,Stat4,,Wind1,,Wind1,
time,status,PA1M_AVG,status,PR1M_SUM,status,RH1M_AVG,status,SR1M_AVG,status,TA1M_AVG,status,W1dAve1m,status,W1sAve1m,
2000-06-17, 00:00:00,VALID,917.392,VALID,0,VALID,99.1763,VALID,0,VALID,19.0409,VALID,187,VALID,0.982936,
2000-06-17, 00:01:00,VALID,917.37,VALID,0,VALID,99.2017,VALID,-0.0169808,VALID,19.0308,VALID,183,VALID,1.03437,
2000-06-17, 00:02:00,VALID,917.347,VALID,0,VALID,99.2487,VALID,-0.0169808,VALID,19.0409,VALID,183,VALID,1.10397,
2000-06-17, 00:03:00,VALID,917.357,VALID,0,VALID,99.2576,VALID,-0.0339617,VALID,19.0375,VALID,189,VALID,1.14988,
2000-06-17, 00:04:00,VALID,917.335,VALID,0,VALID,99.2843,VALID,0,VALID,19.0407,VALID,197,VALID,0.89822,
2000-06-17, 00:05:00,VALID,917.327,VALID,0,VALID,99.2945,VALID,-0.0339617,VALID,19.0471,VALID,187,VALID,0.936328,
2000-06-17, 00:06:00,VALID,917.331,VALID,0,VALID,99.292,VALID,0,VALID,19.0439,VALID,185,VALID,0.614844,
2000-06-17, 00:07:00,VALID,917.337,VALID,0,VALID,99.2983,VALID,-0.0169808,VALID,19.0476,VALID,181,VALID,0.873561,
2000-06-17, 00:08:00,VALID,917.334,VALID,0,VALID,99.2894,VALID,-0.0339617,VALID,19.0151,VALID,197,VALID,0.550495,
2000-06-17, 00:09:00,VALID,917.321,VALID,0,VALID,99.3199,VALID,-0.0169808,VALID,19.0215,VALID,177,VALID,0.590946,
2000-06-17, 00:10:00,VALID,917.299,VALID,0,VALID,99.3619,VALID,0,VALID,19.028,VALID,179,VALID,1.0473,
2000-06-17, 00:11:00,VALID,917.288,VALID,0,VALID,99.3912,VALID,-0.0849042,VALID,19.0442,VALID,209,VALID,0.653166,
2000-06-17, 00:12:00,VALID,917.251,VALID,0,VALID,99.4535,VALID,-0.0169808,VALID,19.0601,VALID,208,VALID,0.909206,
2000-06-17, 00:13:00,VALID,917.214,VALID,0,VALID,99.4573,VALID,-0.0169808,VALID,19.0792,VALID,214,VALID,0.69784,
2000-06-17, 00:14:00,VALID,917.192,VALID,0,VALID,99.4675,VALID,0,VALID,19.0887,VALID,207,VALID,1.08117,
2000-06-17, 00:15:00,VALID,917.152,VALID,0,VALID,99.5031,VALID,0,VALID,19.1217,VALID,215,VALID,0.857973,
2000-06-17, 00:16:00,VALID,917.132,VALID,0,VALID,99.5425,VALID,0,VALID,19.1505,VALID,207,VALID,0.97516,
2000-06-17, 00:17:00,VALID,917.111,VALID,0,VALID,99.5781,VALID,-0.0169808,VALID,19.1796,VALID,221,VALID,1.37932,
2000-06-17, 00:18:00,VALID,917.102,VALID,0,VALID,99.5844,VALID,-0.0679233,VALID,19.2057,VALID,221,VALID,0.688189,
2000-06-17, 00:19:00,VALID,917.094,VALID,0,VALID,99.5844,VALID,-0.0169808,VALID,19.2246,VALID,207,VALID,1.44944,
2000-06-17, 00:20:00,VALID,917.087,VALID,0,VALID,99.5806,VALID,-0.0169808,VALID,19.2377,VALID,224,VALID,1.19152,
2000-06-17, 00:21:00,VALID,917.068,VALID,0,VALID,99.5883,VALID,-0.0509425,VALID,19.2511,VALID,230,VALID,1.31651,
2000-06-17, 00:22:00,VALID,917.051,VALID,0,VALID,99.5908,VALID,0,VALID,19.2571,VALID,216,VALID,1.51379,
2000-06-17, 00:23:00,VALID,917.054,VALID,0,VALID,99.5832,VALID,-0.0169808,VALID,19.2435,VALID,220,VALID,0.915752,
2000-06-17, 00:24:00,VALID,917.034,VALID,0,VALID,99.5743,VALID,-0.0339617,VALID,19.2472,VALID,226,VALID,1.25062,
2000-06-17, 00:25:00,VALID,917.034,VALID,0,VALID,99.5679,VALID,0.0679233,VALID,19.2393,VALID,220,VALID,1.34581,
2000-06-17, 00:26:00,VALID,917.022,VALID,0,VALID,99.5692,VALID,0.101885,VALID,19.2231,VALID,224,VALID,1.26719,
2000-06-17, 00:27:00,VALID,917.033,VALID,0,VALID,99.5679,VALID,0.0849042,VALID,19.2169,VALID,209,VALID,0.749155,
2000-06-17, 00:28:00,VALID,917.028,VALID,0,VALID,99.5654,VALID,0.0849042,VALID,19.2139,VALID,194,VALID,0.759421,
2000-06-17, 00:29:00,VALID,917.034,VALID,0,VALID,99.5755,VALID,0.101885,VALID,19.1873,VALID,205,VALID,0.661951,
2000-06-17, 00:30:00,VALID,917.03,VALID,0,VALID,99.6073,VALID,0.0679233,VALID,19.1975,VALID,188,VALID,0.721191,
2000-06-17, 00:31:00,VALID,917.033,VALID,0,VALID,99.615,VALID,0.118866,VALID,19.2072,VALID,201,VALID,0.586939,
2000-06-17, 00:32:00,VALID,917.038,VALID,0,VALID,99.6086,VALID,0.101885,VALID,19.2035,VALID,213,VALID,0.831027,
2000-06-17, 00:33:00,VALID,917.036,VALID,0,VALID,99.62,VALID,0.0679233,VALID,19.2107,VALID,213,VALID,0.57897,
2000-06-17, 00:34:00,VALID,917.031,VALID,0,VALID,99.6264,VALID,0.0849042,VALID,19.207,VALID,198,VALID,0.617417,
2000-06-17, 00:35:00,VALID,917.007,VALID,0,VALID,99.6277,VALID,0.101885,VALID,19.2104,VALID,195,VALID,0.329392,
2000-06-17, 00:36:00,VALID,917.008,VALID,0,VALID,99.6277,VALID,0.0849042,VALID,19.1873,VALID,209,VALID,0.0818257,
2000-06-17, 00:37:00,VALID,916.996,VALID,0,VALID,99.6251,VALID,0.0849042,VALID,19.1873,VALID,198,VALID,0.645354,
2000-06-17, 00:38:00,VALID,917.007,VALID,0,VALID,99.6137,VALID,0.101885,VALID,19.1645,VALID,218,VALID,0.344196,
2000-06-17, 00:39:00,VALID,917.017,VALID,0,VALID,99.6048,VALID,0.101885,VALID,19.1516,VALID,204,VALID,0.568412,
2000-06-17, 00:40:00,VALID,917.017,VALID,0,VALID,99.5946,VALID,0,VALID,19.1269,VALID,199,VALID,0.790441,
2000-06-17, 00:41:00,VALID,917.016,VALID,0,VALID,99.5844,VALID,0.0169808,VALID,19.1182,VALID,189,VALID,0.634924,
2000-06-17, 00:42:00,VALID,917.012,VALID,0,VALID,99.5616,VALID,0,VALID,19.0951,VALID,170,VALID,0.518555,
2000-06-17, 00:43:00,VALID,917.005,VALID,0,VALID,99.5654,VALID,-0.0339617,VALID,19.0695,VALID,164,VALID,0.663662,
2000-06-17, 00:44:00,VALID,916.964,VALID,0,VALID,99.5857,VALID,-0.0339617,VALID,19.0534,VALID,162,VALID,0.923884,
2000-06-17, 00:45:00,VALID,916.939,VALID,0,VALID,99.5755,VALID,-0.0339617,VALID,19.0474,VALID,153,VALID,0.827914,
2000-06-17, 00:46:00,VALID,916.912,VALID,0,VALID,99.5348,VALID,-0.0509425,VALID,18.9922,VALID,170,VALID,0.757813,
2000-06-17, 00:47:00,VALID,916.885,VALID,0,VALID,99.5781,VALID,0,VALID,18.9758,VALID,186,VALID,0.852196,
2000-06-17, 00:48:00,VALID,916.861,VALID,0,VALID,99.62,VALID,-0.0169808,VALID,18.9888,VALID,190,VALID,1.20251,
2000-06-17, 00:49:00,VALID,916.847,VALID,0,VALID,99.648,VALID,0,VALID,19.0116,VALID,195,VALID,0.718544,
2000-06-17, 00:50:00,VALID,916.823,VALID,0,VALID,99.6239,VALID,0,VALID,19.0084,VALID,204,VALID,0.776786,
2000-06-17, 00:51:00,VALID,916.823,VALID,0,VALID,99.6646,VALID,0,VALID,19.0044,VALID,203,VALID,0.686867,
2000-06-17, 00:52:00,VALID,916.816,VALID,0,VALID,99.6747,VALID,-0.0169808,VALID,19.0308,VALID,190,VALID,0.837316,
2000-06-17, 00:53:00,VALID,916.797,VALID,0,VALID,99.6709,VALID,-0.0169808,VALID,19.037,VALID,183,VALID,0.808699,
2000-06-17, 00:54:00,VALID,916.793,VALID,0,VALID,99.6658,VALID,0,VALID,19.0404,VALID,188,VALID,0.682129,
2000-06-17, 00:55:00,VALID,916.79,VALID,0,VALID,99.6633,VALID,0,VALID,19.0278,VALID,181,VALID,0.727364,
2000-06-17, 00:56:00,VALID,916.761,VALID,0,VALID,99.6607,VALID,0,VALID,19.0342,VALID,171,VALID,0.70692,
2000-06-17, 00:57:00,VALID,916.751,VALID,0,VALID,99.6684,VALID,0,VALID,19.0213,VALID,172,VALID,0.716216,
2000-06-17, 00:58:00,VALID,916.73,VALID,0,VALID,99.6493,VALID,-0.0339617,VALID,19.0049,VALID,176,VALID,0.6767,
2000-06-17, 00:59:00,VALID,916.718,VALID,0,VALID,99.6531,VALID,-0.0169808,VALID,19.0056,VALID,184,VALID,1.01478,
2000-06-17, 01:00:00,VALID,916.7,VALID,0,VALID,99.6773,VALID,0,VALID,19.0181,VALID,186,VALID,0.852796,
2000-06-17, 01:01:00,VALID,916.691,VALID,0,VALID,99.6735,VALID,-0.0169808,VALID,19.0181,VALID,191,VALID,0.835732,
2000-06-17, 01:02:00,VALID,916.674,VALID,0,VALID,99.6544,VALID,0,VALID,19.0081,VALID,196,VALID,0.811384,
2000-06-17, 01:03:00,VALID,916.653,VALID,0,VALID,99.6811,VALID,-0.0169808,VALID,19.0248,VALID,199,VALID,0.587627,
2000-06-17, 01:04:00,VALID,916.646,VALID,0,VALID,99.69,VALID,0,VALID,19.0077,VALID,207,VALID,0.451287,
2000-06-17, 01:05:00,VALID,916.624,VALID,0,VALID,99.6874,VALID,0,VALID,19.0215,VALID,202,VALID,0.356841,
2000-06-17, 01:06:00,VALID,916.615,VALID,0,VALID,99.6938,VALID,-0.0339617,VALID,19.0213,VALID,208,VALID,0.4729,
2000-06-17, 01:07:00,VALID,916.591,VALID,0,VALID,99.6989,VALID,-0.0169808,VALID,19.0342,VALID,207,VALID,0.167869,
2000-06-17, 01:08:00,VALID,916.585,VALID,0,VALID,99.6913,VALID,-0.0169808,VALID,19.0414,VALID,195,VALID,0.503571,
2000-06-17, 01:09:00,VALID,916.559,VALID,0,VALID,99.6722,VALID,-0.0339617,VALID,19.0345,VALID,193,VALID,0.80701,
2000-06-17, 01:10:00,VALID,916.547,VALID,0,VALID,99.6569,VALID,-0.0679233,VALID,19.0052,VALID,196,VALID,0.899816,
2000-06-17, 01:11:00,VALID,916.51,VALID,0,VALID,99.6696,VALID,-0.0169808,VALID,19.0086,VALID,180,VALID,1.04202,
2000-06-17, 01:12:00,VALID,916.501,VALID,0,VALID,99.6607,VALID,-0.0339617,VALID,19.0116,VALID,183,VALID,0.953125,
2000-06-17, 01:13:00,VALID,916.468,VALID,0,VALID,99.6264,VALID,-0.0509425,VALID,18.9796,VALID,193,VALID,0.707854,
2000-06-17, 01:14:00,VALID,916.456,VALID,0,VALID,99.6264,VALID,-0.0169808,VALID,18.9632,VALID,183,VALID,0.808259,
2000-06-17, 01:15:00,VALID,916.433,VALID,0,VALID,99.6429,VALID,-0.0509425,VALID,18.95,VALID,173,VALID,0.772171,
2000-06-17, 01:16:00,VALID,916.407,VALID,0,VALID,99.6315,VALID,-0.0169808,VALID,18.9341,VALID,172,VALID,0.632353,
2000-06-17, 01:17:00,VALID,916.393,VALID,0,VALID,99.6048,VALID,-0.0169808,VALID,18.8884,VALID,166,VALID,0.701436,
2000-06-17, 01:18:00,VALID,916.373,VALID,0,VALID,99.5819,VALID,0,VALID,18.8727,VALID,167,VALID,0.484863,
2000-06-17, 01:19:00,VALID,916.354,VALID,0,VALID,99.5997,VALID,-0.0169808,VALID,18.8439,VALID,175,VALID,0.48137,
2000-06-17, 01:20:00,VALID,916.321,VALID,0,VALID,99.6429,VALID,-0.0509425,VALID,18.8441,VALID,185,VALID,0.441964,
2000-06-17, 01:21:00,VALID,916.309,VALID,0,VALID,99.6213,VALID,0,VALID,18.8245,VALID,183,VALID,0.490076,
2000-06-17, 01:22:00,VALID,916.293,VALID,0,VALID,99.6226,VALID,0,VALID,18.8084,VALID,176,VALID,0.388327,
2000-06-17, 01:23:00,VALID,916.27,VALID,0,VALID,99.6099,VALID,-0.0169808,VALID,18.7756,VALID,173,VALID,0.477196,
2000-06-17, 01:24:00,VALID,916.277,VALID,0,VALID,99.5895,VALID,0,VALID,18.7468,VALID,172,VALID,0.608141,
2000-06-17, 01:25:00,VALID,916.261,VALID,0,VALID,99.5997,VALID,-0.0509425,VALID,18.7338,VALID,176,VALID,0.557771,
2000-06-17, 01:26:00,VALID,916.263,VALID,0,VALID,99.6048,VALID,0,VALID,18.7179,VALID,192,VALID,0.71942,
2000-06-17, 01:27:00,VALID,916.26,VALID,0,VALID,99.5908,VALID,-0.0169808,VALID,18.6983,VALID,195,VALID,0.552998,
2000-06-17, 01:28:00,VALID,916.254,VALID,0,VALID,99.5794,VALID,-0.0339617,VALID,18.6593,VALID,199,VALID,0.964614,
2000-06-17, 01:29:00,VALID,916.267,VALID,0,VALID,99.573,VALID,0,VALID,18.6533,VALID,204,VALID,0.806166,
2000-06-17, 01:30:00,VALID,916.249,VALID,0,VALID,99.5959,VALID,-0.0169808,VALID,18.6434,VALID,200,VALID,0.903076,
2000-06-17, 01:31:00,VALID,916.251,VALID,0,VALID,99.6048,VALID,-0.0169808,VALID,18.66,VALID,204,VALID,1.04327,
2000-06-17, 01:32:00,VALID,916.237,VALID,0,VALID,99.6035,VALID,0,VALID,18.6563,VALID,199,VALID,0.561384,
2000-06-17, 01:33:00,VALID,916.216,VALID,0,VALID,99.5832,VALID,-0.0509425,VALID,18.6598,VALID,192,VALID,0.782939,
2000-06-17, 01:34:00,VALID,916.191,VALID,0,VALID,99.5552,VALID,-0.0339617,VALID,18.6501,VALID,193,VALID,0.607537,
2000-06-17, 01:35:00,VALID,916.187,VALID,0,VALID,99.5654,VALID,-0.0509425,VALID,18.6506,VALID,200,VALID,0.558699,
2000-06-17, 01:36:00,VALID,916.167,VALID,0,VALID,99.5527,VALID,-0.0339617,VALID,18.6471,VALID,198,VALID,0.522615,
2000-06-17, 01:37:00,VALID,916.156,VALID,0,VALID,99.5399,VALID,0,VALID,18.6404,VALID,203,VALID,0.447368,
2000-06-17, 01:38:00,VALID,916.156,VALID,0,VALID,99.5425,VALID,0,VALID,18.6436,VALID,197,VALID,0.0897321,
2000-06-17, 01:39:00,VALID,916.162,VALID,0,VALID,99.531,VALID,-0.0169808,VALID,18.6275,VALID,207,VALID,0.365498,
2000-06-17, 01:40:00,VALID,916.153,VALID,0,VALID,99.5031,VALID,-0.0339617,VALID,18.6312,VALID,206,VALID,0,
2000-06-17, 01:41:00,VALID,916.15,VALID,0,VALID,99.4916,VALID,-0.0509425,VALID,18.6217,VALID,185,VALID,0,
2000-06-17, 01:42:00,VALID,916.143,VALID,0,VALID,99.4598,VALID,-0.0339617,VALID,18.618,VALID,173,VALID,0.413086,
2000-06-17, 01:43:00,VALID,916.14,VALID,0,VALID,99.4153,VALID,-0.0339617,VALID,18.5885,VALID,170,VALID,0.798878,
2000-06-17, 01:44:00,VALID,916.126,VALID,0,VALID,99.3428,VALID,-0.0339617,VALID,18.5634,VALID,168,VALID,0.84308,
2000-06-17, 01:45:00,VALID,916.116,VALID,0,VALID,99.325,VALID,-0.0339617,VALID,18.5241,VALID,167,VALID,0.775971,
2000-06-17, 01:46:00,VALID,916.104,VALID,0,VALID,99.3047,VALID,-0.0339617,VALID,18.4918,VALID,167,VALID,0.74954,
2000-06-17, 01:47:00,VALID,916.09,VALID,0,VALID,99.3136,VALID,0,VALID,18.4791,VALID,177,VALID,0.761402,
2000-06-17, 01:48:00,VALID,916.087,VALID,0,VALID,99.3085,VALID,-0.0509425,VALID,18.4632,VALID,184,VALID,0.889186,
2000-06-17, 01:49:00,VALID,916.062,VALID,0,VALID,99.2945,VALID,0,VALID,18.4563,VALID,183,VALID,0.606908,
2000-06-17, 01:50:00,VALID,916.054,VALID,0,VALID,99.278,VALID,0,VALID,18.4468,VALID,189,VALID,0.993527,
2000-06-17, 01:51:00,VALID,916.043,VALID,0,VALID,99.2398,VALID,0,VALID,18.4337,VALID,196,VALID,0.978463,
2000-06-17, 01:52:00,VALID,916.024,VALID,0,VALID,99.1813,VALID,-0.0169808,VALID,18.4369,VALID,184,VALID,1.00483,
2000-06-17, 01:53:00,VALID,916.019,VALID,0,VALID,99.0834,VALID,-0.0509425,VALID,18.4379,VALID,178,VALID,0.936867,
2000-06-17, 01:54:00,VALID,916.016,VALID,0,VALID,98.9766,VALID,-0.0339617,VALID,18.4272,VALID,164,VALID,0.860107,
2000-06-17, 01:55:00,VALID,916.015,VALID,0,VALID,98.8406,VALID,0,VALID,18.4272,VALID,169,VALID,1.05228,
2000-06-17, 01:56:00,VALID,916.009,VALID,0,VALID,98.7058,VALID,-0.0169808,VALID,18.427,VALID,167,VALID,0.517187,
2000-06-17, 01:57:00,VALID,916.005,VALID,0,VALID,98.6066,VALID,0,VALID,18.4369,VALID,191,VALID,0.973395,
2000-06-17, 01:58:00,VALID,916.012,VALID,0,VALID,98.5315,VALID,0.0169808,VALID,18.4434,VALID,196,VALID,0.901884,
2000-06-17, 01:59:00,VALID,915.993,VALID,0,VALID,98.5188,VALID,0,VALID,18.4695,VALID,198,VALID,1.18708,
2000-06-17, 02:00:00,VALID,915.972,VALID,0,VALID,98.4934,VALID,0,VALID,18.4665,VALID,202,VALID,1.04379,
2000-06-17, 02:01:00,VALID,915.968,VALID,0,VALID,98.501,VALID,0,VALID,18.4755,VALID,191,VALID,1.06579,
2000-06-17, 02:02:00,VALID,915.959,VALID,0,VALID,98.5684,VALID,-0.0169808,VALID,18.4891,VALID,185,VALID,0.919643,
2000-06-17, 02:03:00,VALID,915.951,VALID,0,VALID,98.5722,VALID,0,VALID,18.4891,VALID,181,VALID,0.753167,
2000-06-17, 02:04:00,VALID,915.946,VALID,0,VALID,98.6028,VALID,-0.0169808,VALID,18.4824,VALID,184,VALID,0.639706,
2000-06-17, 02:05:00,VALID,915.944,VALID,0,VALID,98.6905,VALID,-0.0169808,VALID,18.5149,VALID,189,VALID,0.999367,
2000-06-17, 02:06:00,VALID,915.95,VALID,0,VALID,98.6676,VALID,0,VALID,18.5117,VALID,189,VALID,0.826172,
2000-06-17, 02:07:00,VALID,915.953,VALID,0,VALID,98.749,VALID,0.0169808,VALID,18.5304,VALID,196,VALID,1.01943,
2000-06-17, 02:08:00,VALID,915.938,VALID,0,VALID,98.7439,VALID,0.0169808,VALID,18.5569,VALID,199,VALID,0.787054,
2000-06-17, 02:09:00,VALID,915.931,VALID,0,VALID,98.7121,VALID,0.0169808,VALID,18.5763,VALID,220,VALID,0.498944,
2000-06-17, 02:10:00,VALID,915.922,VALID,0,VALID,98.688,VALID,0,VALID,18.5887,VALID,206,VALID,0.590303,
2000-06-17, 02:11:00,VALID,915.915,VALID,0,VALID,98.6511,VALID,0,VALID,18.6183,VALID,208,VALID,0.483953,
2000-06-17, 02:12:00,VALID,915.902,VALID,0,VALID,98.5583,VALID,0,VALID,18.621,VALID,210,VALID,0.572163,
2000-06-17, 02:13:00,VALID,915.895,VALID,0,VALID,98.4858,VALID,0.0339617,VALID,18.6178,VALID,213,VALID,0.959498,
2000-06-17, 02:14:00,VALID,915.885,VALID,0,VALID,98.426,VALID,0,VALID,18.618,VALID,210,VALID,0.70067,
2000-06-17, 02:15:00,VALID,915.889,VALID,0,VALID,98.4553,VALID,0,VALID,18.6148,VALID,208,VALID,0.9356,
2000-06-17, 02:16:00,VALID,915.887,VALID,0,VALID,98.5786,VALID,0,VALID,18.6243,VALID,208,VALID,0.610754,
2000-06-17, 02:17:00,VALID,915.888,VALID,0,VALID,98.6358,VALID,0,VALID,18.6337,VALID,206,VALID,0.888091,
2000-06-17, 02:18:00,VALID,915.9,VALID,0,VALID,98.6765,VALID,0,VALID,18.6469,VALID,206,VALID,0.859375,
2000-06-17, 02:19:00,VALID,915.909,VALID,0,VALID,98.7096,VALID,-0.0169808,VALID,18.6739,VALID,202,VALID,0.616186,
2000-06-17, 02:20:00,VALID,915.91,VALID,0,VALID,98.6714,VALID,0,VALID,18.6766,VALID,201,VALID,0.560938,
2000-06-17, 02:21:00,VALID,915.922,VALID,0,VALID,98.6167,VALID,0.0169808,VALID,18.6695,VALID,188,VALID,0.871199,
2000-06-17, 02:22:00,VALID,915.917,VALID,0,VALID,98.5277,VALID,0.0339617,VALID,18.6893,VALID,202,VALID,0.445083,
2000-06-17, 02:23:00,VALID,915.921,VALID,0,VALID,98.5061,VALID,0,VALID,18.6955,VALID,200,VALID,0.845017,
2000-06-17, 02:24:00,VALID,915.935,VALID,0,VALID,98.4514,VALID,0.0339617,VALID,18.7149,VALID,197,VALID,0.761513,
2000-06-17, 02:25:00,VALID,915.926,VALID,0,VALID,98.3459,VALID,0.0169808,VALID,18.7509,VALID,183,VALID,0.964844,
2000-06-17, 02:26:00,VALID,915.932,VALID,0,VALID,98.2289,VALID,0.0169808,VALID,18.7569,VALID,188,VALID,1.27277,
2000-06-17, 02:27:00,VALID,915.915,VALID,0,VALID,98.131,VALID,-0.0169808,VALID,18.78,VALID,190,VALID,1.43201,
2000-06-17, 02:28:00,VALID,915.926,VALID,0,VALID,97.9517,VALID,0,VALID,18.8121,VALID,184,VALID,1.28102,
2000-06-17, 02:29:00,VALID,915.903,VALID,0,VALID,97.7724,VALID,0,VALID,18.8312,VALID,189,VALID,1.22213,
2000-06-17, 02:30:00,VALID,915.906,VALID,0,VALID,97.5715,VALID,-0.0339617,VALID,18.8612,VALID,188,VALID,1.0188,
2000-06-17, 02:31:00,VALID,915.898,VALID,0,VALID,97.4634,VALID,0,VALID,18.8541,VALID,189,VALID,0.909054,
2000-06-17, 02:32:00,VALID,915.911,VALID,0,VALID,97.3388,VALID,0,VALID,18.8732,VALID,178,VALID,0.725,
2000-06-17, 02:33:00,VALID,915.91,VALID,0,VALID,97.2523,VALID,-0.0169808,VALID,18.8739,VALID,179,VALID,0.783995,
2000-06-17, 02:34:00,VALID,915.904,VALID,0,VALID,97.2409,VALID,0,VALID,18.8769,VALID,166,VALID,0.68727,
2000-06-17, 02:35:00,VALID,915.912,VALID,0,VALID,97.1595,VALID,0,VALID,18.8732,VALID,179,VALID,0.21685,
2000-06-17, 02:36:00,VALID,915.905,VALID,0,VALID,97.0285,VALID,-0.0169808,VALID,18.87,VALID,183,VALID,0.572574,
2000-06-17, 02:37:00,VALID,915.901,VALID,0,VALID,96.9802,VALID,0,VALID,18.8608,VALID,188,VALID,0.295847,
2000-06-17, 02:38:00,VALID,915.9,VALID,0,VALID,96.9764,VALID,0,VALID,18.8578,VALID,189,VALID,0.426116,
2000-06-17, 02:39:00,VALID,915.887,VALID,0,VALID,96.9598,VALID,0,VALID,18.8379,VALID,184,VALID,0.161951,
2000-06-17, 02:40:00,VALID,915.88,VALID,0,VALID,96.942,VALID,0,VALID,18.8285,VALID,184,VALID,0,
2000-06-17, 02:41:00,VALID,915.881,VALID,0,VALID,96.9433,VALID,0,VALID,18.8183,VALID,182,VALID,0,
2000-06-17, 02:42:00,VALID,915.866,VALID,0,VALID,96.9865,VALID,0.0339617,VALID,18.8121,VALID,175,VALID,0.0341797,
2000-06-17, 02:43:00,VALID,915.862,VALID,0,VALID,96.8925,VALID,-0.0169808,VALID,18.7927,VALID,185,VALID,0.279447,
2000-06-17, 02:44:00,VALID,915.843,VALID,0,VALID,96.8963,VALID,0,VALID,18.7765,VALID,194,VALID,0.698438,
2000-06-17, 02:45:00,VALID,915.832,VALID,0,VALID,96.9077,VALID,0,VALID,18.7696,VALID,184,VALID,0.974029,
2000-06-17, 02:46:00,VALID,915.823,VALID,0,VALID,96.9357,VALID,0.0339617,VALID,18.7726,VALID,181,VALID,0.789752,
2000-06-17, 02:47:00,VALID,915.814,VALID,0,VALID,96.9853,VALID,0.0169808,VALID,18.7731,VALID,177,VALID,0.563345,
2000-06-17, 02:48:00,VALID,915.805,VALID,0,VALID,96.8556,VALID,0,VALID,18.7828,VALID,185,VALID,0.719778,
2000-06-17, 02:49:00,VALID,915.804,VALID,0,VALID,96.8022,VALID,0,VALID,18.7895,VALID,182,VALID,0.70477,
2000-06-17, 02:50:00,VALID,915.803,VALID,0,VALID,96.7984,VALID,0,VALID,18.7857,VALID,172,VALID,0.788839,
2000-06-17, 02:51:00,VALID,915.802,VALID,0,VALID,96.8136,VALID,0,VALID,18.7862,VALID,184,VALID,0.828125,
2000-06-17, 02:52:00,VALID,915.804,VALID,0,VALID,96.8492,VALID,0,VALID,18.7798,VALID,176,VALID,0.770221,
2000-06-17, 02:53:00,VALID,915.801,VALID,0,VALID,96.8136,VALID,0.0169808,VALID,18.7634,VALID,179,VALID,0.676731,
2000-06-17, 02:54:00,VALID,915.786,VALID,0,VALID,96.8365,VALID,-0.0169808,VALID,18.7569,VALID,191,VALID,0.881836,
2000-06-17, 02:55:00,VALID,915.787,VALID,0,VALID,96.7462,VALID,-0.0849042,VALID,18.7549,VALID,194,VALID,0.953125,
2000-06-17, 02:56:00,VALID,915.775,VALID,0,VALID,96.544,VALID,-0.101885,VALID,18.7616,VALID,187,VALID,0.857813,
2000-06-17, 02:57:00,VALID,915.766,VALID,0,VALID,96.3953,VALID,-0.118866,VALID,18.7911,VALID,188,VALID,0.859375,
2000-06-17, 02:58:00,VALID,915.765,VALID,0,VALID,96.2732,VALID,-0.118866,VALID,18.8036,VALID,187,VALID,0.71898,
2000-06-17, 02:59:00,VALID,915.764,VALID,0,VALID,96.216,VALID,-0.101885,VALID,18.807,VALID,187,VALID,0.740709,
2000-06-17, 03:00:00,VALID,915.749,VALID,0,VALID,96.2388,VALID,-0.118866,VALID,18.8033,VALID,181,VALID,0.934005,
2000-06-17, 03:01:00,VALID,915.741,VALID,0,VALID,96.0214,VALID,-0.118866,VALID,18.804,VALID,179,VALID,1.08799,
2000-06-17, 03:02:00,VALID,915.729,VALID,0,VALID,95.968,VALID,-0.0849042,VALID,18.8036,VALID,182,VALID,0.803125,
2000-06-17, 03:03:00,VALID,915.709,VALID,0,VALID,95.9972,VALID,-0.118866,VALID,18.7941,VALID,176,VALID,0.873944,
2000-06-17, 03:04:00,VALID,915.699,VALID,0,VALID,95.9489,VALID,-0.118866,VALID,18.7747,VALID,186,VALID,0.944393,
2000-06-17, 03:05:00,VALID,915.684,VALID,0,VALID,96.0557,VALID,-0.101885,VALID,18.7717,VALID,184,VALID,1.04476,
2000-06-17, 03:06:00,VALID,915.676,VALID,0,VALID,96.0735,VALID,-0.118866,VALID,18.7655,VALID,183,VALID,0.899902,
2000-06-17, 03:07:00,VALID,915.668,VALID,0,VALID,96.057,VALID,-0.118866,VALID,18.768,VALID,181,VALID,0.833534,
2000-06-17, 03:08:00,VALID,915.67,VALID,0,VALID,95.9883,VALID,-0.0849042,VALID,18.7648,VALID,177,VALID,0.703125,
2000-06-17, 03:09:00,VALID,915.665,VALID,0,VALID,96.0367,VALID,-0.101885,VALID,18.7583,VALID,180,VALID,0.686022,
2000-06-17, 03:10:00,VALID,915.665,VALID,0,VALID,96.1269,VALID,0,VALID,18.7348,VALID,179,VALID,0.911161,
2000-06-17, 03:11:00,VALID,915.665,VALID,0,VALID,96.0964,VALID,0,VALID,18.7251,VALID,181,VALID,0.917652,
2000-06-17, 03:12:00,VALID,915.669,VALID,0,VALID,96.0405,VALID,0,VALID,18.6958,VALID,183,VALID,0.809827,
2000-06-17, 03:13:00,VALID,915.655,VALID,0,VALID,96.0748,VALID,0,VALID,18.6734,VALID,186,VALID,0.835115,
2000-06-17, 03:14:00,VALID,915.655,VALID,0,VALID,96.0901,VALID,-0.0169808,VALID,18.654,VALID,180,VALID,0.637946,
2000-06-17, 03:15:00,VALID,915.65,VALID,0,VALID,96.085,VALID,-0.0169808,VALID,18.6245,VALID,180,VALID,0.636613,
2000-06-17, 03:16:01,VALID,915.644,VALID,0,VALID,96.1346,VALID,-0.0169808,VALID,18.6016,VALID,175,VALID,0.498851,
2000-06-17, 03:17:00,VALID,915.631,VALID,0,VALID,96.1269,VALID,0,VALID,18.5795,VALID,172,VALID,0.578758,
2000-06-17, 03:18:00,VALID,915.625,VALID,0,VALID,96.2643,VALID,-0.0169808,VALID,18.5532,VALID,179,VALID,0.616699,
2000-06-17, 03:19:00,VALID,915.608,VALID,0,VALID,96.4181,VALID,0,VALID,18.5313,VALID,178,VALID,0.689103,
2000-06-17, 03:20:00,VALID,915.601,VALID,0,VALID,96.5046,VALID,0,VALID,18.4886,VALID,180,VALID,0.824107,
2000-06-17, 03:21:00,VALID,915.577,VALID,0,VALID,96.5695,VALID,0,VALID,18.4794,VALID,184,VALID,0.805743,
2000-06-17, 03:22:00,VALID,915.579,VALID,0,VALID,96.6063,VALID,-0.0169808,VALID,18.463,VALID,186,VALID,0.850643,
2000-06-17, 03:23:00,VALID,915.569,VALID,0,VALID,96.5746,VALID,-0.0169808,VALID,18.4565,VALID,192,VALID,0.914063,
2000-06-17, 03:24:00,VALID,915.566,VALID,0,VALID,96.4181,VALID,0,VALID,18.46,VALID,195,VALID,0.839638,
2000-06-17, 03:25:00,VALID,915.575,VALID,0,VALID,96.2948,VALID,0,VALID,18.4632,VALID,188,VALID,0.823602,
2000-06-17, 03:26:00,VALID,915.578,VALID,0,VALID,96.2414,VALID,0,VALID,18.4471,VALID,190,VALID,0.905134,
2000-06-17, 03:27:01,VALID,915.579,VALID,0,VALID,96.1905,VALID,0,VALID,18.4344,VALID,203,VALID,0.804688,
2000-06-17, 03:28:01,VALID,915.583,VALID,0,VALID,96.1244,VALID,0.0169808,VALID,18.4339,VALID,184,VALID,1.05744,
2000-06-17, 03:29:00,VALID,915.586,VALID,0,VALID,95.926,VALID,0,VALID,18.457,VALID,197,VALID,0.753378,
2000-06-17, 03:30:00,VALID,915.589,VALID,0,VALID,95.8065,VALID,0.0169808,VALID,18.4759,VALID,189,VALID,0.912354,
2000-06-17, 03:31:00,VALID,915.585,VALID,0,VALID,95.7175,VALID,0,VALID,18.4828,VALID,194,VALID,0.698718,
2000-06-17, 03:32:00,VALID,915.585,VALID,0,VALID,95.6654,VALID,0,VALID,18.4923,VALID,192,VALID,0.712723,
2000-06-17, 03:33:00,VALID,915.573,VALID,0,VALID,95.7188,VALID,0,VALID,18.4598,VALID,187,VALID,0.652238,
2000-06-17, 03:34:00,VALID,915.565,VALID,0,VALID,95.8853,VALID,0,VALID,18.4376,VALID,184,VALID,0.637638,